Location: Unspecified
(0.0000°N, 0.0000°E)
Time: 10:31:29
(UTC+00:00)

A-11 Canister half - Pass Details

Date: 07 August 2021
Orbit: 1515 x 1685 km, 47.2° (Epoch: 27 September)

Event Time Altitude Azimuth Distance (km) Brightness Sun altitude
Rises 12:13:57 0° 222° (SW) 4,655 11.4 73.6°
Reaches altitude 10° 12:16:58 10° 223° (SW) 3,675 11.0 73.5°
Maximum altitude 12:26:13 80° 309° (NW) 1,553 11.5 73.0°
Drops below altitude 10° 12:35:42 10° 36° (NE) 3,753 11.3 72.1°
Sets 12:38:49 0° 37° (NE) 4,759 11.7 71.8°
